E24CR-1 Weather Reports


Display with metric or nautical units.
time (UTC)temp
F
wind
direction
speed
MPH
gust
MPH
rain 1hr
in
rain 24hr
in
rain mn
in
humidity
%
barometer
mb
20260503180208 84 0 0.0 0.0 0.00 0.00 0.00 50 951.0
20260503175144 83 0 0.0 0.0 0.00 0.00 0.00 51 951.0
20260503174120 83 0 0.0 0.0 0.00 0.00 0.00 52 951.0
20260503173056 83 0 0.0 0.0 0.00 0.00 0.00 53 951.0
20260503172031 84 0 0.0 0.0 0.00 0.00 0.00 51 951.0
20260503171007 84 0 0.0 0.0 0.00 0.00 0.00 51 951.0
20260503150518 86 0 0.0 0.0 0.00 0.00 0.00 47 951.0
20260503140252 89 0 0.0 0.0 0.00 0.00 0.00 46 950.0
20260503131049 89 0 0.0 0.0 0.00 0.00 0.00 41 949.0
20260503110559 93 0 0.0 0.0 0.00 0.00 0.00 37 947.0
20260503090110 95 0 0.0 0.0 0.00 0.00 0.00 33 948.0
20260503080909 96 0 0.0 0.0 0.00 0.00 0.00 32 948.0
20260503072732 100 0 0.0 0.0 0.00 0.00 0.00 29 949.0
20260503071708 98 0 0.0 0.0 0.00 0.00 0.00 30 949.0
20260503070644 99 0 0.0 0.0 0.00 0.00 0.00 30 949.0
20260503054331 102 0 0.0 0.0 0.00 0.00 0.00 29 951.0
20260503053307 102 0 0.0 0.0 0.00 0.00 0.00 30 951.0
20260503052243 100 0 0.0 0.0 0.00 0.00 0.00 30 951.0
20260503051219 101 0 0.0 0.0 0.00 0.00 0.00 30 952.0
20260503050154 100 0 0.0 0.0 0.00 0.00 0.00 31 952.0
20260503045130 99 0 0.0 0.0 0.00 0.00 0.00 32 952.0
20260503044106 97 0 0.0 0.0 0.00 0.00 0.00 34 952.0
20260503043042 93 0 0.0 0.0 0.00 0.00 0.00 37 952.0
20260503042018 93 0 0.0 0.0 0.00 0.00 0.00 37 952.0
20260503040953 95 0 0.0 0.0 0.00 0.00 0.00 35 953.0
20260503035929 97 0 0.0 0.0 0.00 0.00 0.00 34 953.0
20260503034905 95 0 0.0 0.0 0.00 0.00 0.00 35 953.0
20260503033841 93 0 0.0 0.0 0.00 0.00 0.00 36 953.0
20260503032817 93 0 0.0 0.0 0.00 0.00 0.00 39 953.0
20260503031753 93 0 0.0 0.0 0.00 0.00 0.00 38 953.0
20260503030729 94 0 0.0 0.0 0.00 0.00 0.00 38 953.0
20260503025705 92 0 0.0 0.0 0.00 0.00 0.00 39 953.0
20260503024640 93 0 0.0 0.0 0.00 0.00 0.00 40 953.0
20260503023616 91 0 0.0 0.0 0.00 0.00 0.00 40 953.0
20260503022552 91 0 0.0 0.0 0.00 0.00 0.00 40 953.0
20260503021527 92 0 0.0 0.0 0.00 0.00 0.00 40 953.0
20260503020503 89 0 0.0 0.0 0.00 0.00 0.00 43 953.0
20260503015439 89 0 0.0 0.0 0.00 0.00 0.00 43 953.0
20260503014415 89 0 0.0 0.0 0.00 0.00 0.00 43 953.0
20260503013351 88 0 0.0 0.0 0.00 0.00 0.00 44 953.0
20260503012326 87 0 0.0 0.0 0.00 0.00 0.00 44 952.0
20260503011303 85 0 0.0 0.0 0.00 0.00 0.00 47 952.0
20260503010238 86 0 0.0 0.0 0.00 0.00 0.00 46 952.0
20260503005214 85 0 0.0 0.0 0.00 0.00 0.00 48 952.0
20260503004150 84 0 0.0 0.0 0.00 0.00 0.00 46 952.0
20260503003126 85 0 0.0 0.0 0.00 0.00 0.00 46 952.0
20260503002101 85 0 0.0 0.0 0.00 0.00 0.00 46 952.0
20260503001037 83 0 0.0 0.0 0.00 0.00 0.00 47 952.0
20260503000013 84 0 0.0 0.0 0.00 0.00 0.00 48 952.0
20260502234949 83 0 0.0 0.0 0.00 0.00 0.00 48 951.0
20260502233925 82 0 0.0 0.0 0.00 0.00 0.00 49 951.0
20260502232901 82 0 0.0 0.0 0.00 0.00 0.00 48 951.0
20260502231837 83 0 0.0 0.0 0.00 0.00 0.00 47 951.0
20260502230813 83 0 0.0 0.0 0.00 0.00 0.00 47 951.0
20260502225749 82 0 0.0 0.0 0.00 0.00 0.00 48 951.0
20260502224724 83 0 0.0 0.0 0.00 0.00 0.00 47 951.0
20260502223700 82 0 0.0 0.0 0.00 0.00 0.00 49 951.0
20260502222636 82 0 0.0 0.0 0.00 0.00 0.00 47 951.0
20260502221612 82 0 0.0 0.0 0.00 0.00 0.00 48 951.0
20260502220548 82 0 0.0 0.0 0.00 0.00 0.00 49 950.0
20260502215523 82 0 0.0 0.0 0.00 0.00 0.00 49 950.0
20260502214447 82 0 0.0 0.0 0.00 0.00 0.00 49 950.0
20260502213422 82 0 0.0 0.0 0.00 0.00 0.00 49 950.0
20260502212357 83 0 0.0 0.0 0.00 0.00 0.00 49 950.0
20260502211333 83 0 0.0 0.0 0.00 0.00 0.00 49 950.0
20260502210309 83 0 0.0 0.0 0.00 0.00 0.00 50 950.0
20260502205245 83 0 0.0 0.0 0.00 0.00 0.00 51 950.0
20260502204221 83 0 0.0 0.0 0.00 0.00 0.00 49 950.0
20260502203157 83 0 0.0 0.0 0.00 0.00 0.00 49 950.0
20260502202132 83 0 0.0 0.0 0.00 0.00 0.00 50 950.0
20260502201108 83 0 0.0 0.0 0.00 0.00 0.00 49 950.0
20260502200044 83 0 0.0 0.0 0.00 0.00 0.00 49 950.0
20260502195020 84 0 0.0 0.0 0.00 0.00 0.00 49 950.0
20260502193956 84 0 0.0 0.0 0.00 0.00 0.00 49 950.0
20260502192932 84 0 0.0 0.0 0.00 0.00 0.00 50 950.0
20260502191908 84 0 0.0 0.0 0.00 0.00 0.00 50 950.0
20260502190844 84 0 0.0 0.0 0.00 0.00 0.00 50 950.0
20260502185819 84 0 0.0 0.0 0.00 0.00 0.00 50 950.0
20260502184755 84 0 0.0 0.0 0.00 0.00 0.00 49 950.0
20260502183731 84 0 0.0 0.0 0.00 0.00 0.00 49 950.0
20260502182707 85 0 0.0 0.0 0.00 0.00 0.00 49 950.0
20260502181643 85 0 0.0 0.0 0.00 0.00 0.00 49 950.0